TimeCST,TemperatureF,Dew PointF,Humidity,Sea Level PressureIn,VisibilityMPH,Wind Direction,Wind SpeedMPH,Gust SpeedMPH,PrecipitationIn,Events,Conditions,WindDirDegrees,DateUTC
12:15 AM,32.0,1.4,27,30.33,10.0,SW,13.8,-,N/A,,Clear,220,2012-12-21 06:15:00
12:35 AM,32.0,1.4,27,30.33,10.0,SW,13.8,-,N/A,,Clear,220,2012-12-21 06:35:00
12:55 AM,32.0,1.4,27,30.32,10.0,SW,12.7,-,N/A,,Clear,220,2012-12-21 06:55:00
1:15 AM,32.0,1.4,27,30.30,10.0,SW,10.4,-,N/A,,Clear,220,2012-12-21 07:15:00
1:35 AM,32.0,3.2,30,30.30,10.0,WSW,11.5,-,N/A,,Clear,240,2012-12-21 07:35:00
1:55 AM,32.0,3.2,30,30.29,10.0,WSW,18.4,-,N/A,,Clear,240,2012-12-21 07:55:00
2:15 AM,32.0,3.2,30,30.29,10.0,WSW,13.8,-,N/A,,Clear,250,2012-12-21 08:15:00
2:35 AM,32.0,1.4,27,30.30,10.0,WSW,12.7,-,N/A,,Clear,250,2012-12-21 08:35:00
2:55 AM,32.0,1.4,27,30.30,10.0,West,11.5,-,N/A,,Clear,260,2012-12-21 08:55:00
3:15 AM,32.0,1.4,27,30.29,10.0,WSW,10.4,-,N/A,,Clear,250,2012-12-21 09:15:00
3:35 AM,32.0,1.4,27,30.29,10.0,WSW,12.7,-,N/A,,Clear,240,2012-12-21 09:35:00
3:55 AM,32.0,3.2,30,30.28,10.0,WSW,11.5,-,N/A,,Clear,250,2012-12-21 09:55:00
4:15 AM,32.0,3.2,30,30.27,10.0,West,9.2,-,N/A,,Clear,260,2012-12-21 10:15:00
4:35 AM,32.0,3.2,30,30.27,10.0,West,11.5,-,N/A,,Clear,260,2012-12-21 10:35:00
4:55 AM,32.0,3.2,30,30.26,10.0,West,15.0,-,N/A,,Clear,260,2012-12-21 10:55:00
5:15 AM,33.8,3.2,28,30.26,10.0,WSW,11.5,-,N/A,,Clear,250,2012-12-21 11:15:00
5:35 AM,32.0,3.2,30,30.26,10.0,West,11.5,-,N/A,,Clear,260,2012-12-21 11:35:00
5:55 AM,32.0,3.2,30,30.27,10.0,West,10.4,-,N/A,,Clear,270,2012-12-21 11:55:00
6:15 AM,28.4,3.2,34,30.27,10.0,West,10.4,-,N/A,,Clear,260,2012-12-21 12:15:00
6:35 AM,30.2,5.0,34,30.28,10.0,West,12.7,-,N/A,,Clear,260,2012-12-21 12:35:00
6:55 AM,30.2,5.0,34,30.29,10.0,West,11.5,-,N/A,,Clear,260,2012-12-21 12:55:00
7:15 AM,30.2,5.0,34,30.29,10.0,West,13.8,-,N/A,,Clear,260,2012-12-21 13:15:00
7:35 AM,30.2,5.0,34,30.29,10.0,West,11.5,-,N/A,,Clear,270,2012-12-21 13:35:00
7:55 AM,30.2,5.0,34,30.30,10.0,West,11.5,-,N/A,,Clear,260,2012-12-21 13:55:00
8:15 AM,30.2,5.0,34,30.30,10.0,West,11.5,-,N/A,,Clear,270,2012-12-21 14:15:00
8:35 AM,32.0,5.0,32,30.30,10.0,West,11.5,-,N/A,,Clear,270,2012-12-21 14:35:00
8:55 AM,33.8,5.0,30,30.30,10.0,West,12.7,-,N/A,,Clear,270,2012-12-21 14:55:00
9:15 AM,35.6,5.0,28,30.30,10.0,West,17.3,-,N/A,,Clear,270,2012-12-21 15:15:00
9:35 AM,37.4,3.2,24,30.31,10.0,West,12.7,-,N/A,,Clear,270,2012-12-21 15:35:00
9:55 AM,41.0,3.2,21,30.31,10.0,West,11.5,-,N/A,,Clear,270,2012-12-21 15:55:00
10:15 AM,42.8,3.2,19,30.30,10.0,West,16.1,-,N/A,,Clear,260,2012-12-21 16:15:00
10:35 AM,42.8,3.2,19,30.30,10.0,West,13.8,-,N/A,,Clear,270,2012-12-21 16:35:00
10:55 AM,44.6,3.2,18,30.30,10.0,West,12.7,-,N/A,,Clear,280,2012-12-21 16:55:00
11:15 AM,46.4,3.2,17,30.30,10.0,West,12.7,-,N/A,,Clear,280,2012-12-21 17:15:00
11:35 AM,50.0,3.2,15,30.29,10.0,WSW,15.0,-,N/A,,Clear,250,2012-12-21 17:35:00
11:55 AM,50.0,1.4,14,30.27,10.0,West,11.5,-,N/A,,Clear,260,2012-12-21 17:55:00
12:15 PM,51.8,3.2,14,30.27,10.0,West,11.5,-,N/A,,Clear,270,2012-12-21 18:15:00
12:35 PM,53.6,3.2,13,30.25,10.0,West,12.7,-,N/A,,Clear,260,2012-12-21 18:35:00
12:55 PM,55.4,3.2,12,30.24,10.0,West,11.5,-,N/A,,Clear,260,2012-12-21 18:55:00
1:15 PM,57.2,3.2,11,30.23,10.0,West,9.2,-,N/A,,Clear,260,2012-12-21 19:15:00
1:35 PM,59.0,5.0,12,30.22,10.0,West,10.4,-,N/A,,Clear,260,2012-12-21 19:35:00
1:55 PM,60.8,5.0,11,30.20,10.0,West,11.5,-,N/A,,Clear,280,2012-12-21 19:55:00
2:15 PM,62.6,1.4,9,30.19,10.0,WSW,19.6,24.2,N/A,,Clear,240,2012-12-21 20:15:00
2:35 PM,64.4,-4.0,6,30.18,10.0,SW,18.4,24.2,N/A,,Clear,230,2012-12-21 20:35:00
2:55 PM,64.4,-4.0,6,30.18,10.0,WSW,16.1,21.9,N/A,,Clear,250,2012-12-21 20:55:00
3:15 PM,62.6,-4.0,7,30.18,10.0,SW,16.1,-,N/A,,Clear,230,2012-12-21 21:15:00
3:35 PM,62.6,-5.8,6,30.17,10.0,SW,17.3,-,N/A,,Clear,230,2012-12-21 21:35:00
3:55 PM,62.6,-4.0,7,30.17,10.0,SW,20.7,24.2,N/A,,Clear,230,2012-12-21 21:55:00
4:15 PM,62.6,-4.0,7,30.17,10.0,SW,16.1,23.0,N/A,,Clear,230,2012-12-21 22:15:00
4:35 PM,60.8,-2.2,8,30.17,10.0,WSW,13.8,-,N/A,,Clear,240,2012-12-21 22:35:00
4:55 PM,59.0,-0.4,9,30.17,10.0,SW,9.2,-,N/A,,Clear,230,2012-12-21 22:55:00
5:15 PM,55.4,-0.4,10,30.17,10.0,SW,10.4,-,N/A,,Clear,220,2012-12-21 23:15:00
5:35 PM,50.0,-0.4,13,30.17,10.0,SSW,10.4,-,N/A,,Clear,200,2012-12-21 23:35:00
5:55 PM,44.6,-0.4,15,30.17,10.0,SSW,12.7,-,N/A,,Clear,210,2012-12-21 23:55:00
6:15 PM,44.6,-0.4,15,30.16,10.0,SSW,12.7,-,N/A,,Clear,200,2012-12-22 00:15:00
6:35 PM,44.6,-2.2,14,30.16,10.0,SSW,13.8,-,N/A,,Clear,200,2012-12-22 00:35:00
6:55 PM,42.8,-2.2,15,30.16,10.0,SSW,15.0,-,N/A,,Clear,210,2012-12-22 00:55:00
7:15 PM,42.8,-2.2,15,30.16,10.0,SSW,12.7,-,N/A,,Clear,210,2012-12-22 01:15:00
7:35 PM,42.8,-0.4,16,30.16,10.0,SSW,17.3,-,N/A,,Clear,210,2012-12-22 01:35:00
7:55 PM,42.8,-0.4,16,30.16,10.0,SSW,15.0,-,N/A,,Clear,210,2012-12-22 01:55:00
8:15 PM,44.6,-0.4,15,30.16,10.0,SSW,16.1,-,N/A,,Clear,210,2012-12-22 02:15:00
8:35 PM,41.0,1.4,19,30.16,10.0,SSW,16.1,-,N/A,,Clear,210,2012-12-22 02:35:00
8:55 PM,42.8,1.4,18,30.16,10.0,SSW,16.1,19.6,N/A,,Clear,210,2012-12-22 02:55:00
9:15 PM,42.8,-0.4,16,30.17,10.0,SSW,15.0,20.7,N/A,,Clear,210,2012-12-22 03:15:00
9:35 PM,39.2,-0.4,19,30.17,10.0,SSW,9.2,-,N/A,,Clear,210,2012-12-22 03:35:00
9:55 PM,41.0,-0.4,18,30.17,10.0,SW,13.8,-,N/A,,Clear,220,2012-12-22 03:55:00
10:15 PM,37.4,1.4,22,30.16,10.0,SSW,12.7,-,N/A,,Clear,210,2012-12-22 04:15:00
10:35 PM,37.4,1.4,22,30.16,10.0,SW,13.8,-,N/A,,Clear,220,2012-12-22 04:35:00
10:55 PM,37.4,1.4,22,30.16,10.0,SSW,15.0,-,N/A,,Clear,210,2012-12-22 04:55:00
11:15 PM,39.2,1.4,21,30.15,10.0,SW,16.1,-,N/A,,Clear,220,2012-12-22 05:15:00
11:35 PM,39.2,1.4,21,30.15,10.0,SW,18.4,21.9,N/A,,Clear,230,2012-12-22 05:35:00
11:55 PM,41.0,1.4,19,30.14,10.0,SW,20.7,25.3,N/A,,Clear,230,2012-12-22 05:55:00